Weather History for KSSF - March, 2014

Change the Weather History Date:

Thursday, March 20, 2014

  Actual Average (KSAT) Record (KSAT)
Temperature  
Mean Temperature 62 °F 63 °F  
Max Temperature 79 °F 75 °F 93 °F (1976)
Min Temperature 48 °F 52 °F 26 °F (1965)
Degree Days  
Heating Degree Days 2 4  
Month to date heating degree days 116  
Since 1 July heating degree days 1417  
Cooling Degree Days 0 2  
Month to date cooling degree days 35  
Year to date cooling degree days 61  
Growing Degree Days 12 (Base 50)    
Moisture  
Dew Point 38 °F    
Average Humidity 42    
Maximum Humidity 64    
Minimum Humidity 24    
Precipitation  
Precipitation 0.00 in 0.07 in 1.45 in (2012)
Month to date precipitation 1.50  
Year to date precipitation 5.05  
Snow  
Snow 0.00 in - - ()
Month to date snowfall  
Since 1 July snowfall  
Snow Depth -    
Sea Level Pressure  
Sea Level Pressure 30.12 in    
Wind  
Wind Speed 6 mph (ENE)    
Max Wind Speed 12 mph    
Max Gust Speed -    
Visibility 10 miles    
Events      
T = Trace of Precipitation, MM = Missing Value Source: NWS Daily Summary

Daily Weather History Graph

Daily Weather History Graph

Search for Another Location

Airport or City:

Trip Planner

Search our weather history database for the weather conditions in past years. The results will help you decide how hot, cold, wet, or windy it might be!

Date:

Astronomy

Mar. 20, 2014 Rise Set
Actual Time 7:37 AM CDT 7:45 PM CDT
Civil Twilight 7:13 AM CDT 8:09 PM CDT
Nautical Twilight 6:46 AM CDT 8:36 PM CDT
Astronomical Twilight 6:18 AM CDT 9:04 PM CDT
Moon 11:47 PM CDT (3/20) 10:02 AM CDT (3/20)
Length of Visible Light 12h 55m
Length of Day
12h 07m
Waning Gibbous, 84% of the Moon is Illuminated
Mar 20
Waning Gibbous
Mar 23
Last Quarter
Mar 30
New
Apr 7
First Quarter
Apr 15
Full

Hourly Weather History & Observations

Time (CDT) Temp. Dew Point Humidity Pressure Visibility Wind Dir Wind Speed Gust Speed Precip Events Conditions
12:53 AM 57.9 °F 36.0 °F 44% 30.17 in 10.0 mi ENE 6.9 mph - N/A   Clear
1:53 AM 55.0 °F 37.0 °F 51% 30.17 in 10.0 mi NNE 5.8 mph - N/A   Clear
2:53 AM 54.0 °F 37.0 °F 53% 30.16 in 10.0 mi NNE 4.6 mph - N/A   Clear
3:53 AM 53.1 °F 37.0 °F 55% 30.15 in 10.0 mi NNE 4.6 mph - N/A   Clear
4:53 AM 52.0 °F 37.0 °F 57% 30.15 in 10.0 mi North 4.6 mph - N/A   Clear
5:53 AM 48.9 °F 37.0 °F 64% 30.17 in 10.0 mi Calm Calm - N/A   Clear
6:53 AM 50.0 °F 37.0 °F 61% 30.19 in 10.0 mi North 3.5 mph - N/A   Clear
7:53 AM 50.0 °F 37.0 °F 61% 30.20 in 10.0 mi North 3.5 mph - N/A   Clear
8:53 AM 57.0 °F 37.9 °F 49% 30.21 in 10.0 mi NNE 5.8 mph - N/A   Clear
9:53 AM 62.1 °F 37.0 °F 39% 30.21 in 10.0 mi ENE 10.4 mph - N/A   Clear
10:53 AM 66.0 °F 36.0 °F 33% 30.21 in 10.0 mi NE 11.5 mph - N/A   Clear
11:53 AM 69.1 °F 34.0 °F 27% 30.19 in 10.0 mi NE 8.1 mph - N/A   Clear
12:53 PM 71.1 °F 34.0 °F 26% 30.17 in 10.0 mi East 5.8 mph - N/A   Clear
1:53 PM 73.9 °F 36.0 °F 25% 30.14 in 10.0 mi ENE 6.9 mph - N/A   Clear
2:53 PM 75.0 °F 36.0 °F 24% 30.09 in 10.0 mi ENE 6.9 mph - N/A   Clear
3:53 PM 77.0 °F 37.9 °F 24% 30.06 in 10.0 mi Variable 3.5 mph - N/A   Clear
4:53 PM 77.0 °F 37.0 °F 24% 30.04 in 10.0 mi Calm Calm - N/A   Clear
5:53 PM 77.0 °F 39.9 °F 26% 30.02 in 10.0 mi SSW 8.1 mph - N/A   Clear
6:53 PM 75.9 °F 41.0 °F 29% 30.01 in 10.0 mi SE 8.1 mph - N/A   Clear
7:53 PM 70.0 °F 42.1 °F 36% 30.01 in 10.0 mi ESE 5.8 mph - N/A   Clear
8:53 PM 68.0 °F 43.0 °F 40% 30.01 in 10.0 mi SE 4.6 mph - N/A   Clear
9:53 PM 66.0 °F 43.0 °F 43% 30.02 in 10.0 mi ESE 3.5 mph - N/A   Clear
10:53 PM 60.1 °F 43.0 °F 53% 30.03 in 10.0 mi SE 3.5 mph - N/A   Clear
11:53 PM 61.0 °F 44.1 °F 54% 30.02 in 10.0 mi SE 4.6 mph - N/A   Clear